Regional Weather Roundup
Issued by NWS Charleston, WV

Home | Current Version | Previous Version | Graphics & Text | Print | Product List | Glossary On
Versions: 1 2 3 4 5 6 7 8 9 10 11 12 13 14 15 16 17 18 19 20 21 22 23 24 25 26 27 28 29 30 31 32 33 34 35 36 37 38 39 40 41 42 43 44 45 46 47 48 49 50
752
ASUS41 KRLX 092310
RWRRLX
West Virginia Regional Weather Roundup
National Weather Service Charleston WV
600 PM EST TUE FEB 09 2016

Note: "fair" indicates few or no clouds below 12,000 feet with no
significant weather and/or obstructions to visibility.

WVZ003-100000-
Northern Panhandle of West Virginia

CITY           SKY/WX    TMP DP  RH WIND       PRES   REMARKS
WHEELING       LGT SNOW  25  20  81 W10       29.68R
$$

WVZ009-100000-
Northwest West Virginia

CITY           SKY/WX    TMP DP  RH WIND       PRES   REMARKS
PARKERSBURG    LGT SNOW  24  21  88 W6        29.79R VSB 1
$$

WVZ006-100000-
Western West Virginia

CITY           SKY/WX    TMP DP  RH WIND       PRES   REMARKS
HUNTINGTON     LGT SNOW  24  18  77 W7        29.82R
$$

WVZ015-100000-
West Central West Virginia

CITY           SKY/WX    TMP DP  RH WIND       PRES   REMARKS
CHARLESTON     LGT SNOW  24  19  81 SW10      29.80R VSB 1
$$

WVZ022-031-100000-
North Central West Virginia

CITY           SKY/WX    TMP DP  RH WIND       PRES   REMARKS
CLARKSBURG     LGT SNOW  23  17  78 SW9       29.72R
MORGANTOWN     LGT SNOW  23  18  81 SW6       29.70R VSB 1
$$

WVZ025-035-042-045-100000-
Southern West Virginia

CITY           SKY/WX    TMP DP  RH WIND       PRES   REMARKS
BECKLEY        LGT SNOW  18  10  71 W13       29.70R WCI   5
LOGAN          LGT SNOW  21  16  79 W9        29.78R
BLUEFIELD      LGT SNOW  16  11  80 W7        29.69R WCI   6
LEWISBURG      CLOUDY    23  14  69 W8        29.68R
$$

WVZ047-100000-
Northern Mountains of West Virginia

CITY           SKY/WX    TMP DP  RH WIND       PRES   REMARKS
ELKINS         LGT SNOW  21  14  74 W8        29.68R
$$

WVZ052-100000-
Eastern Panhandle of West Virginia

CITY           SKY/WX    TMP DP  RH WIND       PRES   REMARKS
MARTINSBURG    CLOUDY    32  23  69 W9        29.62R
PETERSBURG     CLOUDY    29  16  58 CALM      29.67R
$$




USA.gov is the U.S. government's official web portal to all federal, state and local government web resources and services.